KEKS Airport (Ennis - Big Sky) Information

FAA: EKS - ICAO: KEKS

KEKS Airport Location

State Montana
County Madison
City Ennis
KEKS Airport is 6 miles southeast of Ennis, MT.
Latitude 45-16-27.7000N
Longitude 111-38-55.9000W
Elevation 5,422ft

KEKS Airport METARs

METAR KEKS 071855Z AUTO 18016G24KT 10SM CLR M03/M08 A3011 RMK AO2
Altimeter 30.11"
Temperature -3.0°C (26.6°F)
Wind 180° at 16KT with gusts to 24KT
Clouds Skies are clear.
Visibility 10.0mi
Time observed: 2022-12-07T18:55:00Z

KEKS Airport Details

Status Operational
Activation August 1975
Ownership Public
Usage Public
Chart GREAT FALLS
ATC on-site No
Beacon schedule sunset-sunrise
Beacon color clear green

KEKS Airport Contacts

Owner MADISON COUNTY
Owner address MADISON COUNTY COURTHOUSE, PO BOX 278, VIRGINIA CITY, MT 59755-0278
Owner phone 406-843-4277
Manager LESLIE RUFF
Manager address 6149 CUSTER FRONTAGE RD., CUSTER, MT 59024
Manager phone 406-856-4164

KEKS Airport (Ennis - Big Sky) Radio Frequencies

KEKS (Airport) Radio Frequencies

UNICOM 122.8
Common traffic advisory frequency (CTAF) 122.8